sat.trackr.live / text

‹ back to catalog

FLOCK 4Q-11

NORAD 58273 · 2023-174T

PAYLOAD ACTIVE UNKNOWN

§ Identity

Operator
Country
US
Launch date
2023-11-11
Launch site
AFWTR
Launch vehicle
Mass (kg)
RCS (m²)

Purposes: earth_obs

External: N2YO · Heavens-Above · Gunter

§ Orbital elements

Epoch: 2026-09-19T12:20:38.854176Z

Period
92.48 min
Inclination
97.3788°
Eccentricity
0.0006634
Mean motion
15.57027161 rev/d
Perigee alt
391.8 km
Apogee alt
400.8 km
Semi-major
6,774.4 km
B*
9.3370e-4
RAAN
353.8695°
Arg perigee
183.1455°
Mean anomaly
176.9760°
Rev number
16,022

§ Raw data

FLOCK 4Q-111 58273U 23174T   26262.51433859  .00067866  00000+0  93370-3 0  99952 58273  97.3788 353.8695 0006634 183.1455 176.9760 15.57027161160226

JSON: /api/v1/satellites/58273 · /tle

For live sub-satellite position, see the globe view (requires WebGL).

§ Visibility from observer

Set your observer location to see the next 7 days of passes ≥ 10°. The values pass through the URL so the page stays shareable.

No JS? Fill the form by hand. The geolocation button needs JavaScript.